{"data":{"norad_id":66662,"intl_designator":"2025-274N","name":"E3T-1 (E3TESTER-1)","alt_names":[],"object_type":"PAYLOAD","status":"ACTIVE","operator":null,"country":"SKOR","launch_date":"2025-11-26","launch_site_code":"NSC","launch_vehicle":null,"mission":null,"orbit_class":"UNKNOWN","rcs_meters":null,"size_class":null,"mass_kg":null,"dimensions":null,"purposes":[],"wikipedia_slug":null,"has_3d_model":false,"image_url":null,"decayed_at":null,"tle_current":{"epoch":"2026-09-20T02:44:33.985536Z","epoch_age_seconds":154335,"freshness":"FRESH","line1":"1 66662U 25274N   26263.11428224  .00000973  00000+0  95292-4 0  9998","line2":"2 66662  97.7491 191.3890 0016304  64.9847 295.3065 14.94489024 44416","mean_motion":14.94489024,"eccentricity":0.0016304,"inclination_deg":97.7491,"raan_deg":191.389,"arg_perigee_deg":64.9847,"mean_anomaly_deg":295.3065,"bstar":9.5292e-5,"rev_number":4441,"period_min":96.354003065599,"perigee_km":572.60822286578,"apogee_km":595.31022623479,"semimajor_km":6962.0962245503,"source":"CELESTRAK","updated_at":"2026-09-21T09:00:16.118262Z"}}}